Hourly Data Report for October 05, 2017

All times are specified in Local Standard Time (LST). Add 1 hour to adjust for Daylight Saving Time where and when it is observed.

MOOSONEE
ONTARIO

51°17'28.000" N
80°36'28.000" W
9.10 m
6075420
71398
YMO

Related Data

No related data is available for this station

Download Data

Hourly Data (October 2017)
Hourly Data Report for October 5, 2017
Temp Definition
°C
Dew Point Temp Definition
°C
Rel Hum Definition
%
Wind Dir Definition
10's deg

Wind Spd Definition
km/h
Visibility Definition
km
Stn Press Definition
kPa
Hmdx Definition


Wind Chill Definition


Weather Definition


TIME
00:00 Legend Double Dagger 10.1 9.2 94 22 18 16.1 100.71     LegendNANA
01:00 Legend Double Dagger 10.3 8.9 91 23 18 16.1 100.66     LegendNANA
02:00 Legend Double Dagger 10.6 8.3 86 27 24 16.1 100.68     LegendNANA
03:00 Legend Double Dagger 8.8 7.1 89 27 21 16.1 100.72     LegendNANA
04:00 Legend Double Dagger 8.7 6.6 87 28 17 16.1 100.76     LegendNANA
05:00 Legend Double Dagger 8.2 6.2 87 27 17 16.1 100.81     LegendNANA
06:00 Legend Double Dagger 7.5 5.5 87 28 17 16.1 100.86     LegendNANA
07:00 Legend Double Dagger 6.8 5.8 93 28 11 16.1 100.90     Rain
08:00 Legend Double Dagger 6.9 4.9 87 30 18 16.1 100.96     LegendNANA
09:00 Legend Double Dagger 7.1 4.2 82 29 11 16.1 100.97     LegendNANA
10:00 Legend Double Dagger 8.0 4.2 77 26 15 16.1 100.95     LegendNANA
11:00 Legend Double Dagger 6.8 6.3 97 32 15 12.9 100.96     Rain
12:00 Legend Double Dagger 7.9 5.4 84 29 11 16.1 100.96     LegendNANA
13:00 Legend Double Dagger 9.5 2.6 62 28 30 16.1 100.92     LegendNANA
14:00 Legend Double Dagger 10.4 3.0 60 30 28 16.1 100.93     LegendNANA
15:00 Legend Double Dagger 10.2 2.7 60 31 22 16.1 100.95     LegendNANA
16:00 Legend Double Dagger 10.1 0.9 53 27 22 16.1 100.95     LegendNANA
17:00 Legend Double Dagger 8.6 0.5 57 29 13 16.1 100.97     LegendNANA
18:00 Legend Double Dagger 5.1 1.1 75 27 8 16.1 100.99     LegendNANA
19:00 Legend Double Dagger 3.3 1.1 85 24 9 16.1 101.03     LegendNANA
20:00 Legend Double Dagger 1.8 0.0 88 27 9 16.1 101.10     LegendNANA
21:00 Legend Double Dagger 1.1 -0.4 90 24 5 16.1 101.14     LegendNANA
22:00 Legend Double Dagger 1.2 -0.6 88 24 11 16.1 101.12     LegendNANA
23:00 Legend Double Dagger 2.1 0.0 86 23 13 16.1 101.10     LegendNANA

Notes on Data Quality.

Legend

  • E = Estimated
  • M = Missing
  • NA = Not Available
  • ‡ = Partner data that is not subject to review by the National Climate Archives
Date modified: